User: anonymous   Login
Location: Boiro
(42.6475°N, 8.8834°W)
Time: 01:16:51
(UTC+02:00)
Language:

XW-2D - Orbit

View from above orbital plane
View from above orbital plane
View from above satellite
View from above satellite

Ground track
Ground track

The orbit data is extracted from the following two-line orbital elements,

1 40907U 15049J   24109.63863441  .00053139  00000-0  11612-2 0  9994
2 40907  97.4786 127.0181 0009720 135.0559 225.1478 15.43959154475493
Epoch (UTC): 18 April 2024 15:19:38
Eccentricity: 0.0009720
inclination: 97.4786°
perigee height: 428 km
apogee height: 441 km
right ascension of ascending node: 127.0181°
argument of perigee: 135.0559°
revolutions per day: 15.43959154
mean anomaly at epoch: 225.1478°
orbit number at epoch: 47549

The dashed part of the orbit path shows where the satellite is in the earth's shadow,  

DLR